[[{"header":{"parameterUnit":"m.s-1","parameterCategory":1,"la1":30.2991,"la2":30.254,"lo1":-89.0895,"lo2":-89.0444,"dy":0.0017,"dx":0.0017,"nx":28,"ny":28,"refTime":"2024-02-29T03:00:00:Z","depth":0,"parameterNumber":2,"parameterNumberName":"U-component_of_WINDS"},"data":[0,0,0,0,0,0,0,0,0,0,0,0,0,0,0,0,0,0,0,0,0,0,0,0,0,0,0,0,0,0,0,0,0,0,0,0,0,0,0,0,0,0,0,0,0,0,0,0,0,0,0,0,0,0,0,0,0,0,-4.3517,-4.3518,0,-4.3566,-4.3567,-4.3567,-4.347,-4.3466,-4.3463,-4.346,-4.3511,-4.3515,-4.352,0,0,0,0,0,0,0,0,0,0,0,0,0,-4.334,-4.3344,-4.3517,-4.3518,-4.3518,-4.3566,-4.3567,-4.3567,-4.347,-4.3466,-4.3462,-4.3459,-4.351,-4.3515,-4.352,0,0,0,0,0,0,0,0,0,0,0,0,0,-4.3406,-4.3345,-4.3517,-4.3476,-4.3472,-4.3566,-4.3567,-4.3567,-4.3471,-4.3466,-4.3461,-4.3457,-4.3508,-4.3514,-4.3521,-4.3657,0,0,-4.3541,-4.3543,0,0,0,0,0,0,0,0,-4.3402,-4.3412,-4.3481,-4.3479,-4.3475,-4.3507,-4.3523,-4.3598,-4.3472,-4.3472,-4.346,-4.3455,-4.3514,-4.3519,-4.3539,-4.3659,-4.3661,-4.3541,-4.3545,-4.3548,-4.355,0,0,0,0,0,0,0,-4.3398,-4.341,-4.3536,-4.3482,-4.3479,-4.3455,-4.3459,-4.3536,-4.3519,-4.3471,-4.3464,-4.3471,-4.3511,-4.3533,-4.354,-4.3662,-4.3541,-4.3547,-4.3551,-4.3553,-4.3896,-4.3901,0,0,0,0,0,0,-4.3398,-4.3407,-4.3535,-4.3538,-4.3426,-4.3462,-4.3466,-4.3502,-4.3518,-4.3516,-4.3475,-4.3467,-4.3524,-4.3532,-4.3541,-4.3702,-4.3548,-4.3554,-4.3558,-4.3891,-4.3898,-4.3903,0,0,0,0,0,0,-4.3395,-4.3411,-4.3533,-4.347,-4.3484,-4.347,-4.351,-4.3505,-4.3527,-4.3521,-4.3517,-4.3501,-4.3521,-4.3532,-4.3629,-4.3702,-4.3557,-4.3563,-4.3885,-4.3893,-4.39,-4.4025,0,0,0,0,0,0,-4.339,-4.341,-4.3462,-4.3472,-4.3488,-4.362,-4.3515,-4.3509,-4.3538,-4.3527,-4.3544,-4.3542,-4.3518,-4.362,-4.3635,-4.3709,-4.3568,-4.3878,-4.3889,-4.3898,-4.4014,-4.4036,-4.4055,0,0,0,0,0,-4.3384,-4.3495,-4.3465,-4.3481,-4.3552,-4.3625,-4.3634,-4.3603,-4.3545,-4.3597,-4.3592,-4.3542,-4.3691,-4.363,-4.3647,-4.3724,-4.3874,-4.3886,-4.3897,-4.4005,-4.4032,-4.4054,0,0,0,0,0,0,-4.3494,-4.3496,-4.3462,-4.358,-4.3603,-4.3608,-4.3673,-4.3632,-4.3673,-4.3661,-4.3621,-4.3626,-4.3731,-4.3736,-4.3668,-4.3856,-4.3773,-4.3788,-4.3849,-4.3874,-4.3894,-4.3891,-4.3573,0,0,0,0,0,-4.3532,-4.359,-4.3589,-4.3692,-4.3706,-4.3688,-4.3718,-4.3692,-4.3715,-4.3724,-4.3727,-4.3751,-4.3803,-4.3839,-4.3886,-4.4014,-4.4016,-4.4074,-4.4095,-4.4111,-4.4126,-4.4194,-4.422,-4.3942,-4.3942,-4.3941,0,0,-4.3611,-4.3619,-4.3658,-4.3715,-4.373,-4.3792,-4.3697,-4.3766,-4.3812,-4.3735,-4.3827,-4.383,-4.3854,-4.3967,-4.4016,-4.3975,-4.4203,-4.4126,-4.414,-4.4145,-4.4209,-4.4235,-4.4259,-4.395,-4.3948,-4.3947,0,0,-4.3786,-4.3798,-4.3886,-4.3903,-4.3926,-4.3913,-4.3935,-4.3946,-4.3945,-4.4036,-4.398,-4.4033,-4.4124,-4.4144,-4.4165,-4.4348,-4.4303,-4.4364,-4.4471,-4.4537,-4.4559,-4.4579,-4.4645,-4.4669,-4.4378,-4.4379,-4.4379,0,-4.3882,-4.3973,-4.3937,-4.401,-4.4037,-4.3969,-4.4058,-4.4076,-4.4114,-4.4134,-4.4086,-4.4199,-4.421,-4.4327,-4.4371,-4.4391,-4.4414,-4.4363,-4.4559,-4.4578,-4.4595,-4.4658,-4.4683,-4.4386,-4.4385,-4.4384,-4.4384,0,-4.4089,-4.4153,-4.4221,-4.426,-4.4294,-4.4375,-4.4351,-4.439,-4.4361,-4.4353,-4.4447,-4.4457,-4.4506,-4.4532,-4.4504,-4.4645,-4.4618,-4.4565,-4.4481,-4.463,-4.4688,-4.4712,-4.4397,-4.4394,-4.4392,-4.439,0,0,-4.4337,-4.4354,-4.438,-4.4396,-4.4417,-4.4466,-4.4543,-4.459,-4.4625,-4.4653,-4.4718,-4.4795,-4.4747,-4.4771,-4.4745,-4.4804,-4.4948,-4.4744,-4.4743,-4.4782,-4.5104,-4.5145,-4.5173,-4.4918,-4.4922,-4.4925,-4.5103,0,-4.4512,-4.4646,-4.4616,-4.4748,-4.4807,-4.4743,-4.481,-4.483,-4.4824,-4.4873,-4.4866,-4.4923,-4.4854,-4.4868,-4.4923,-4.4919,-4.5013,-4.4906,-4.4978,-4.4981,-4.4976,-4.5203,-4.5247,-4.5414,-4.5125,-4.5129,-4.5132,0,-4.4735,-4.4772,-4.491,-4.4921,-4.4944,-4.5006,-4.5046,-4.5094,-4.5115,-4.5106,-4.5134,-4.5096,-4.5173,-4.5087,-4.5192,-4.512,-4.5147,-4.515,-4.5155,-4.5162,-4.5067,-4.5218,-4.5466,-4.5492,-4.5167,-4.5164,-4.5161,0,-4.4904,-4.4987,-4.5081,-4.5097,-4.5111,-4.5156,-4.5164,-4.518,-4.5211,-4.5246,-4.5266,-4.531,-4.5334,-4.5369,-4.5344,-4.5283,-4.5454,-4.5365,-4.545,-4.5451,-4.549,-4.5488,-4.5748,-4.5506,-4.5505,-4.5505,-4.5504,0,-4.5103,-4.5191,-4.5157,-4.5215,-4.531,-4.5274,-4.537,-4.537,-4.5385,-4.5442,-4.5388,-4.5443,-4.5405,-4.5457,-4.5437,-4.5528,-4.5539,-4.5535,-4.5529,-4.5541,-4.5542,-4.5559,-4.5548,-4.5512,-4.551,-4.5509,-4.5508,0,-4.5309,-4.5289,-4.5387,-4.5393,-4.5396,-4.5467,-4.5471,-4.5525,-4.5514,-4.5587,-4.5602,-4.5586,-4.5643,-4.5621,-4.5682,-4.5669,-4.5785,-4.5764,-4.5779,-4.5774,-4.586,-4.5853,-4.6141,-4.6177,-4.5911,-4.5914,-4.5916,0,-4.5439,-4.5504,-4.5517,-4.5551,-4.5563,-4.5618,-4.5649,-4.5615,-4.5649,-4.5677,-4.5728,-4.578,-4.5821,-4.5915,-4.5909,-4.5956,-4.5935,-4.6033,-4.5942,-4.5952,-4.5938,-4.5935,-4.5942,-4.6052,-4.6055,-4.6058,-4.606,0,-4.5671,-4.5658,-4.5704,-4.5747,-4.5785,-4.5817,-4.5845,-4.5876,-4.5843,-4.5884,-4.5942,-4.5973,-4.6035,-4.6088,-4.613,-4.6137,-4.6094,-4.6088,-4.611,-4.6124,-4.613,-4.6129,-4.583,-4.6082,-4.608,-4.6078,-4.6077,-4.6076,-4.5843,-4.5899,-4.5916,-4.5969,-4.5986,-4.6013,-4.6064,-4.6059,-4.6107,-4.6155,-4.6131,-4.6199,-4.6217,-4.6268,-4.6282,-4.6334,-4.6296,-4.6328,-4.6337,-4.6345,-4.6357,-4.6121,-4.6342,-4.6341,-4.634,-4.634,-4.6339,0,-4.6074,-4.6082,-4.6131,-4.6171,-4.6213,-4.6167,-4.6195,-4.6233,-4.6293,-4.6314,-4.6354,-4.6421,-4.6472,-4.6469,-4.6516,-4.6559,-4.654,-4.6572,-4.657,-4.6572,-4.6388,-4.6365,-4.6587,-4.6587,-4.6587,-4.6587,-4.6587,-4.6587,-4.6199,-4.6291,-4.628,-4.6379,-4.6386,-4.6451,-4.6471,-4.6496,-4.6512,-4.6589,-4.6631,-4.6629,-4.664,-4.6687,-4.6732,-4.673,-4.675,-4.6791,-4.6782,-4.661,-4.6585,-4.6562,-4.654,-4.6795,-4.6795,-4.6961,-4.6963,-4.6964]},{"header":{"parameterUnit":"m.s-1","parameterCategory":1,"la1":30.2991,"la2":30.254,"lo1":-89.0895,"lo2":-89.0444,"dy":0.0017,"dx":0.0017,"nx":28,"ny":28,"refTime":"2024-02-29T03:00:00:Z","depth":0,"parameterNumber":3,"parameterNumberName":"V-component_of_WINDS"},"data":[0,0,0,0,0,0,0,0,0,0,0,0,0,0,0,0,0,0,0,0,0,0,0,0,0,0,0,0,0,0,0,0,0,0,0,0,0,0,0,0,0,0,0,0,0,0,0,0,0,0,0,0,0,0,0,0,0,0,-6.959,-6.959,0,-6.9648,-6.9648,-6.9649,-6.9558,-6.9555,-6.9552,-6.9549,-6.9604,-6.9608,-6.9612,0,0,0,0,0,0,0,0,0,0,0,0,0,-6.9395,-6.9399,-6.9589,-6.959,-6.9591,-6.9647,-6.9648,-6.9649,-6.9559,-6.9555,-6.9551,-6.9548,-6.9602,-6.9607,-6.9613,0,0,0,0,0,0,0,0,0,0,0,0,0,-6.9469,-6.94,-6.9589,-6.9553,-6.955,-6.9647,-6.9648,-6.9649,-6.956,-6.9555,-6.955,-6.9546,-6.9601,-6.9607,-6.9613,-6.9747,0,0,-6.9633,-6.9636,0,0,0,0,0,0,0,0,-6.9465,-6.9476,-6.9557,-6.9555,-6.9553,-6.9591,-6.96,-6.9682,-6.9561,-6.9556,-6.9549,-6.9543,-6.9603,-6.9609,-6.963,-6.975,-6.9752,-6.9634,-6.9638,-6.9641,-6.9643,0,0,0,0,0,0,0,-6.946,-6.9473,-6.9612,-6.9559,-6.9556,-6.9532,-6.9537,-6.9615,-6.9605,-6.9556,-6.9549,-6.9558,-6.9601,-6.9624,-6.9631,-6.9753,-6.9634,-6.964,-6.9644,-6.9646,-6.9985,-6.999,0,0,0,0,0,0,-6.946,-6.9469,-6.961,-6.9614,-6.9496,-6.9539,-6.9545,-6.9583,-6.9604,-6.9602,-6.9562,-6.9553,-6.9615,-6.9623,-6.9632,-6.979,-6.9641,-6.9647,-6.9651,-6.998,-6.9986,-6.9992,0,0,0,0,0,0,-6.9456,-6.9473,-6.9608,-6.954,-6.9555,-6.9547,-6.9591,-6.9587,-6.961,-6.9608,-6.9605,-6.9588,-6.9612,-6.9623,-6.972,-6.9791,-6.965,-6.9656,-6.9974,-6.9982,-6.9989,-7.0108,0,0,0,0,0,0,-6.9451,-6.9472,-6.9525,-6.9542,-6.9559,-6.9697,-6.9596,-6.9591,-6.9622,-6.9612,-6.9632,-6.9631,-6.9609,-6.971,-6.9726,-6.9797,-6.9661,-6.9968,-6.9978,-6.9987,-7.0098,-7.0119,-7.0137,0,0,0,0,0,-6.9444,-6.9555,-6.9528,-6.9545,-6.9625,-6.9701,-6.9711,-6.9685,-6.9628,-6.968,-6.9678,-6.963,-6.9781,-6.9721,-6.9738,-6.9812,-6.9963,-6.9975,-6.9986,-7.0089,-7.0115,-7.0136,0,0,0,0,0,0,-6.9544,-6.9556,-6.9527,-6.9647,-6.9674,-6.9685,-6.975,-6.9713,-6.9755,-6.9743,-6.9708,-6.9713,-6.9817,-6.9824,-6.9758,-6.9943,-6.9862,-6.9878,-6.9935,-6.9959,-6.9978,-6.9974,-6.9666,0,0,0,0,0,-6.9581,-6.9643,-6.965,-6.9755,-6.977,-6.9758,-6.979,-6.9768,-6.9794,-6.9804,-6.981,-6.9836,-6.9888,-6.9924,-6.9972,-7.0098,-7.01,-7.0157,-7.0177,-7.0193,-7.0207,-7.0273,-7.0298,-7.0029,-7.0029,-7.0029,0,0,-6.9656,-6.967,-6.9712,-6.9775,-6.9794,-6.9858,-6.9768,-6.9839,-6.9886,-6.9814,-6.9907,-6.9912,-6.9938,-7.005,-7.0099,-7.0058,-7.0281,-7.0207,-7.022,-7.0225,-7.0287,-7.0313,-7.0335,-7.0037,-7.0036,-7.0034,0,0,-6.9826,-6.9843,-6.9933,-6.9953,-6.9983,-6.9974,-6.9996,-7.0013,-7.0015,-7.0107,-7.0054,-7.0108,-7.02,-7.0221,-7.0243,-7.0421,-7.0378,-7.0438,-7.054,-7.0605,-7.0626,-7.0645,-7.0708,-7.0731,-7.0451,-7.0452,-7.0452,0,-6.9915,-7.0011,-6.9983,-7.0059,-7.0088,-7.0027,-7.0117,-7.0137,-7.0181,-7.0201,-7.0156,-7.027,-7.0283,-7.0399,-7.0442,-7.0463,-7.0485,-7.0435,-7.0626,-7.0644,-7.0661,-7.072,-7.0744,-7.0459,-7.0458,-7.0457,-7.0456,0,-7.0119,-7.0187,-7.0255,-7.0301,-7.0337,-7.0419,-7.0402,-7.0442,-7.0416,-7.0412,-7.0506,-7.052,-7.057,-7.0595,-7.0571,-7.0708,-7.0682,-7.0632,-7.055,-7.0694,-7.0749,-7.0772,-7.0469,-7.0466,-7.0464,-7.0462,0,0,-7.0354,-7.0383,-7.0409,-7.0428,-7.0457,-7.0507,-7.0586,-7.0636,-7.0671,-7.0703,-7.0767,-7.0847,-7.08,-7.0826,-7.0803,-7.086,-7.0999,-7.0803,-7.0802,-7.0839,-7.115,-7.1188,-7.1215,-7.0971,-7.0975,-7.0978,-7.1148,0,-7.0523,-7.0661,-7.0638,-7.0771,-7.0833,-7.0776,-7.0844,-7.0868,-7.0866,-7.0916,-7.0912,-7.0969,-7.0904,-7.0919,-7.0973,-7.0971,-7.1061,-7.0958,-7.1029,-7.1032,-7.1025,-7.1244,-7.1284,-7.1444,-7.1169,-7.1173,-7.1176,0,-7.0739,-7.0781,-7.0921,-7.0939,-7.0964,-7.1026,-7.1071,-7.112,-7.1145,-7.1139,-7.1168,-7.1134,-7.1211,-7.1128,-7.1232,-7.1163,-7.119,-7.1193,-7.1199,-7.1204,-7.1113,-7.1255,-7.1494,-7.1518,-7.121,-7.1207,-7.1205,0,-7.0896,-7.0987,-7.1083,-7.1101,-7.1125,-7.117,-7.1181,-7.1202,-7.1234,-7.1272,-7.1292,-7.1338,-7.1363,-7.1399,-7.1377,-7.132,-7.1485,-7.1401,-7.1482,-7.1482,-7.1519,-7.1517,-7.1766,-7.1537,-7.1537,-7.1536,-7.1536,0,-7.1088,-7.1176,-7.1154,-7.1212,-7.1308,-7.128,-7.1375,-7.138,-7.1399,-7.1456,-7.1408,-7.1463,-7.1431,-7.1483,-7.1466,-7.1555,-7.1566,-7.1563,-7.1557,-7.1567,-7.1568,-7.1585,-7.1573,-7.1543,-7.1541,-7.154,-7.1539,0,-7.128,-7.1269,-7.1369,-7.1384,-7.1389,-7.146,-7.1471,-7.1525,-7.1519,-7.1592,-7.1607,-7.1598,-7.1656,-7.1638,-7.17,-7.1689,-7.1802,-7.1782,-7.1794,-7.1789,-7.187,-7.1863,-7.2138,-7.2173,-7.1922,-7.1925,-7.1927,0,-7.1403,-7.1469,-7.1492,-7.1528,-7.1543,-7.1602,-7.1634,-7.1608,-7.1644,-7.1677,-7.1727,-7.1781,-7.1823,-7.1918,-7.1916,-7.1963,-7.1944,-7.2037,-7.195,-7.1958,-7.1945,-7.1941,-7.1947,-7.2054,-7.2057,-7.2059,-7.2061,0,-7.1622,-7.1613,-7.1664,-7.1712,-7.1753,-7.1789,-7.1821,-7.1853,-7.1828,-7.1871,-7.193,-7.1963,-7.2027,-7.2081,-7.2124,-7.2133,-7.2094,-7.2089,-7.211,-7.212,-7.2125,-7.2123,-7.1841,-7.2082,-7.208,-7.2079,-7.2077,-7.2077,-7.1783,-7.1839,-7.1864,-7.1922,-7.1943,-7.1974,-7.2025,-7.2027,-7.2077,-7.2128,-7.2109,-7.2177,-7.2199,-7.2253,-7.2268,-7.232,-7.2284,-7.2315,-7.2322,-7.233,-7.2341,-7.2117,-7.2328,-7.2327,-7.2326,-7.2326,-7.2325,0,-7.2,-7.2013,-7.2066,-7.2113,-7.2158,-7.2118,-7.2151,-7.219,-7.2252,-7.2277,-7.2319,-7.2388,-7.244,-7.2441,-7.249,-7.2531,-7.2513,-7.2544,-7.2541,-7.2544,-7.237,-7.2347,-7.2557,-7.2557,-7.2557,-7.2557,-7.2557,-7.2557,-7.2118,-7.2211,-7.2206,-7.2309,-7.232,-7.2389,-7.2411,-7.2439,-7.2458,-7.2537,-7.2581,-7.2582,-7.2598,-7.2647,-7.2692,-7.2691,-7.2711,-7.2749,-7.2741,-7.2579,-7.2556,-7.2534,-7.2512,-7.2753,-7.2754,-7.2909,-7.2911,-7.2912]}]]